Wind_Speed
65 65 65 66 66 66 66 66 66 67 67 67 68 69 69 70 70 70 70 70 70 70 70 70 70 71 71 72 72 73 73 73 73 73 73 74 74 75 75 76 76 77 78 79 80 81 81 80 79 79 78 77 77 76 75 73 71 69 67 65 63 60 58 56 54 55 58 60 59 61 63 64 66 67 66 65 65 65 65 66 68 69 70 71 72
64 64 64 64 65 65 65 66 66 67 68 68 69 69 69 69 69 69 69 69 69 69 69 70 71 72 72 73 73 73 73 73 73 73 74 74 75 76 76 77 78 79 80 81 81 81 81 80 79 78 78 77 77 76 74 73 71 69 67 65 64 62 60 58 57 56 58 61 61 62 64 65 66 68 68 67 67 68 67 67 68 70 71 72 73
64 65 65 65 66 66 67 68 68 68 69 69 69 68 68 68 68 68 69 69 69 70 71 72 73 73 74 74 73 73 73 73 73 74 74 75 76 76 77 79 79 80 81 80 80 80 80 80 79 78 78 77 76 75 73 72 70 69 68 66 65 64 62 60 59 58 58 60 62 63 64 66 67 68 70 70 69 69 70 70 69 70 71 73 74
65 65 66 67 68 68 69 69 69 69 68 68 67 66 66 66 67 68 69 70 71 72 73 73 73 73 73 73 72 72 72 73 73 74 74 75 76 77 79 79 80 80 80 80 79 79 79 79 79 78 77 75 74 74 73 72 70 68 67 66 65 64 63 63 61 61 60 61 63 64 64 66 68 69 70 71 72 71 72 73 72 71 71 73 74
66 66 67 68 68 68 68 68 67 66 66 65 65 65 65 67 68 70 71 72 72 73 73 73 72 72 71 71 71 71 72 72 72 74 75 76 77 78 78 79 79 80 79 79 78 78 78 78 78 76 75 74 74 73 73 72 70 69 67 66 66 65 65 64 64 63 63 62 64 65 66 66 68 70 71 72 73 73 73 74 74 74 73 73 74
67 68 68 69 68 67 67 66 64 64 63 64 64 65 66 68 70 71 72 72 72 72 71 70 70 70 70 70 70 70 71 71 72 74 75 76 77 78 79 79 80 79 78 78 77 77 77 77 76 75 74 74 74 73 72 72 70 69 68 67 67 66 66 65 64 64 64 64 64 65 66 67 68 69 71 73 74 75 75 75 75 76 76 75 74
68 68 69 69 68 66 64 63 63 63 63 64 65 66 67 69 70 71 71 71 70 69 69 68 69 69 69 69 69 69 70 71 72 74 75 76 77 79 79 79 78 78 77 77 76 76 75 74 74 75 75 74 74 73 72 72 71 70 69 67 66 65 64 64 63 62 62 63 63 64 65 67 68 69 71 73 74 75 77 77 76 77 77 77 76
67 67 67 66 64 63 62 62 63 63 64 65 66 67 68 69 69 69 69 68 68 67 67 67 68 68 67 67 68 68 69 70 72 73 75 77 78 79 80 79 77 76 76 77 76 75 74 73 73 74 75 75 74 73 72 72 71 70 68 66 65 63 62 61 60 60 60 60 61 62 63 64 66 68 70 72 74 75 77 77 78 78 78 78 79
65 64 64 63 62 62 63 63 64 64 65 65 66 67 67 67 67 67 67 66 65 65 65 65 66 66 66 66 67 68 69 70 72 74 76 78 79 79 79 77 76 75 76 76 75 74 73 74 74 74 75 75 75 74 73 71 69 68 66 64 63 61 60 59 58 58 58 59 60 60 61 62 64 66 68 70 72 74 76 77 78 80 80 78 79
63 62 62 61 62 62 63 64 64 65 65 65 65 65 65 65 65 65 64 63 63 63 63 63 64 64 65 66 67 68 69 71 72 75 77 78 79 79 78 76 75 75 76 75 74 74 74 74 75 75 75 76 76 75 73 71 69 67 65 63 61 59 58 57 57 56 57 58 60 60 60 61 63 64 66 68 70 72 74 76 77 79 81 80 78
61 61 61 62 62 63 64 64 64 64 63 62 62 62 62 62 62 62 61 60 60 61 61 62 63 64 65 67 68 69 70 72 74 76 78 79 79 78 77 76 76 76 75 75 75 75 75 75 76 76 76 75 75 75 73 72 70 67 66 63 61 59 57 56 55 56 56 57 59 60 59 60 62 64 65 66 68 69 71 73 75 78 80 80 79
61 61 62 62 63 63 63 62 61 60 60 59 59 59 59 59 59 59 59 58 59 60 61 62 63 65 66 68 69 71 72 73 75 77 79 79 79 78 77 76 76 76 75 75 76 76 76 77 77 77 76 75 74 73 72 70 69 67 66 64 62 60 58 56 55 54 54 55 56 58 58 58 60 63 65 65 66 68 68 68 71 74 77 79 79
61 62 62 61 61 60 59 58 58 57 57 57 57 57 57 58 58 58 58 59 60 61 62 63 65 66 68 69 71 72 73 75 77 78 79 80 80 78 77 76 76 75 75 76 77 77 78 78 77 77 76 74 73 71 70 68 68 67 65 63 61 59 57 56 55 53 52 51 51 53 54 54 56 60 64 65 66 67 66 65 65 67 72 75 77
60 60 59 58 57 57 56 56 56 55 55 55 56 56 57 58 59 59 60 60 61 62 63 65 67 68 70 71 72 74 74 76 78 80 81 82 80 78 77 76 76 75 76 76 77 77 77 77 77 76 74 72 69 68 67 66 65 65 64 62 59 58 56 55 54 52 50 48 47 47 48 49 51 55 60 63 65 66 64 63 61 60 63 70 73
57 56 56 55 55 55 55 55 55 55 56 56 56 57 58 59 60 61 61 62 63 64 65 67 68 70 71 73 74 75 76 78 79 81 82 82 79 77 77 76 75 75 76 76 76 76 76 76 75 73 71 69 67 66 65 64 63 62 62 60 58 57 56 54 53 51 50 47 45 44 44 44 46 49 53 58 61 63 62 61 58 55 55 61 68
54 54 54 54 54 55 55 55 56 56 57 57 58 58 59 60 61 62 63 63 64 65 66 68 70 71 72 74 75 76 77 79 81 83 83 81 78 77 76 75 75 75 75 75 75 75 75 75 73 70 69 67 66 64 63 62 61 60 59 58 57 57 57 56 54 53 51 49 46 44 42 43 43 44 46 50 54 58 58 58 56 51 49 54 62
54 54 54 54 55 56 56 57 57 58 58 58 59 59 60 61 62 63 64 64 65 66 68 69 71 72 73 74 75 76 78 80 82 84 83 80 78 76 75 74 74 74 74 74 74 74 74 73 70 69 68 66 65 63 62 60 59 58 57 57 57 58 58 58 57 55 53 50 47 44 41 40 41 41 42 43 46 48 51 52 51 48 47 49 55
54 54 55 56 56 57 57 57 58 58 59 59 60 61 61 62 63 64 64 65 66 68 69 71 72 72 73 74 76 77 79 81 83 84 82 79 76 75 74 74 74 74 73 74 74 74 72 71 69 68 67 65 63 62 60 58 57 56 56 56 56 57 58 57 57 56 53 50 47 43 39 36 36 37 38 38 39 40 41 43 45 44 45 46 48
55 56 56 57 57 58 58 59 59 60 60 61 61 62 63 63 64 65 66 67 68 69 70 71 72 73 74 75 76 78 79 82 83 82 79 76 75 74 73 73 73 73 73 74 74 72 71 69 68 67 65 63 62 61 58 56 56 55 54 53 54 55 56 55 54 53 51 48 45 42 38 35 32 32 33 34 34 34 33 35 38 40 41 42 43
55 56 57 58 58 59 60 60 61 62 62 63 63 64 64 64 65 66 67 68 69 70 70 71 72 73 74 75 77 78 80 82 82 79 76 74 73 72 73 73 73 73 74 75 74 72 71 69 67 66 64 63 61 59 57 56 55 54 53 52 52 53 53 52 51 49 46 44 42 40 37 33 31 29 29 30 30 29 28 30 34 36 37 38 39
56 57 58 59 60 60 61 62 62 63 63 64 64 65 65 66 67 67 68 69 70 70 71 71 72 73 74 76 77 79 81 81 78 75 74 72 72 71 72 72 72 74 75 74 73 71 70 69 67 65 63 61 59 57 56 55 55 54 52 51 51 51 50 49 47 45 42 40 38 37 35 31 28 27 26 26 25 24 25 28 31 33 32 33 36
57 58 59 60 60 61 61 62 62 63 63 64 64 65 66 66 67 68 69 70 70 70 71 71 72 73 75 76 78 80 80 77 74 73 71 71 70 70 70 71 73 74 74 73 71 70 69 68 66 64 62 60 57 55 55 55 54 53 52 50 49 49 48 46 44 41 39 37 35 33 32 29 26 24 22 22 21 21 22 25 27 28 27 29 32
58 59 60 61 61 61 62 62 63 63 64 64 65 65 66 67 68 69 69 70 70 70 70 71 73 74 76 78 79 79 76 73 71 70 69 69 69 69 70 72 74 74 72 71 70 69 68 66 65 63 61 58 55 54 54 54 53 52 51 48 48 48 47 44 41 39 37 35 33 30 29 27 24 21 19 18 18 18 19 21 22 22 22 24 28
60 61 62 62 62 62 63 64 64 64 65 65 65 66 67 67 68 69 70 70 70 70 71 72 74 76 78 79 78 76 73 70 69 68 67 68 68 69 71 73 73 72 70 69 69 67 66 64 63 60 58 55 53 53 53 53 52 50 49 48 48 48 47 44 41 38 36 33 31 28 26 25 23 20 17 16 15 15 16 17 17 17 18 21 25
63 64 64 63 63 64 64 65 65 65 65 65 66 66 67 68 68 69 69 70 70 71 72 74 76 77 78 77 75 72 70 68 67 66 66 68 69 70 72 72 71 69 68 67 66 65 64 62 60 57 56 54 53 52 51 51 50 49 48 48 48 48 47 44 41 38 35 33 30 27 25 23 21 18 15 13 12 12 12 13 13 14 16 20 25
65 65 65 64 64 65 65 65 65 65 65 66 66 66 67 68 69 69 69 70 71 72 74 75 76 76 75 73 71 69 67 65 65 66 67 68 70 71 72 71 69 67 66 66 64 63 61 59 57 55 55 54 52 50 49 49 50 50 49 49 48 47 46 43 40 37 35 32 29 26 24 21 18 16 13 11 10 9 9 10 11 14 17 22 27
66 65 65 65 65 66 65 65 65 66 66 66 66 66 67 68 69 69 69 70 71 73 73 74 74 73 71 69 67 65 64 64 65 66 67 69 70 71 70 68 66 65 64 63 62 60 58 56 54 54 54 53 52 49 48 49 50 51 50 50 49 48 45 42 38 35 32 29 27 24 22 19 16 14 11 9 7 6 7 9 11 15 19 24 29
65 64 64 65 66 66 66 66 66 66 66 66 66 66 67 68 69 69 70 71 71 72 72 72 71 69 67 65 63 62 63 64 65 66 68 69 70 69 67 66 65 64 63 61 59 57 55 53 52 52 52 52 52 50 48 49 51 52 51 50 49 48 45 42 38 35 31 28 25 22 20 17 14 11 9 6 4 4 6 9 12 16 21 25 30
63 63 64 65 65 66 66 66 66 66 66 66 66 67 67 68 68 69 70 70 70 70 69 68 67 65 63 61 61 62 64 65 65 66 68 69 68 66 65 64 63 62 60 58 56 55 53 51 51 50 50 51 51 49 49 49 51 51 51 50 49 47 45 42 38 35 31 28 24 22 19 15 12 9 7 4 2 3 6 10 14 18 22 27 31
63 63 64 65 65 66 66 66 67 66 66 66 67 67 67 67 68 68 68 68 68 67 65 64 63 61 60 60 61 63 64 64 65 67 67 67 65 64 63 62 61 59 57 55 53 51 50 49 48 48 47 48 49 49 48 49 49 50 50 49 48 46 44 41 38 35 31 27 24 21 18 14 11 7 5 2 2 4 7 11 15 20 24 28 32
63 63 65 65 65 66 66 67 67 66 66 66 66 66 66 67 67 66 64 64 63 62 61 60 59 59 59 60 62 63 63 64 65 66 66 64 63 62 62 60 58 56 53 51 50 49 48 47 46 46 45 46 47 48 47 47 48 48 48 47 46 44 42 40 38 35 31 27 22 20 17 14 10 7 4 2 3 6 8 12 16 21 25 29 33
63 64 65 66 66 66 66 66 66 66 65 65 65 66 66 64 62 60 59 59 59 58 58 58 58 59 60 61 61 62 62 64 64 64 63 62 61 61 60 58 55 53 50 49 47 46 46 45 44 44 43 44 45 47 47 47 46 46 46 46 45 43 40 37 34 33 30 26 22 19 16 13 10 6 4 2 4 6 8 11 16 21 26 29 33
64 65 66 66 66 66 66 66 66 66 66 66 65 64 61 57 55 55 56 57 57 57 58 59 60 61 61 61 61 61 62 63 62 61 61 60 60 59 57 55 52 50 48 46 45 44 43 42 42 42 42 42 43 45 46 46 45 45 44 44 43 42 39 36 33 31 29 26 22 18 16 13 9 6 4 3 5 7 9 11 15 20 25 30 34
65 66 66 67 66 66 66 66 66 66 66 65 62 58 54 51 51 53 55 56 57 58 59 60 60 60 60 60 60 61 61 61 60 60 60 59 58 57 54 51 49 47 45 44 43 42 41 41 40 40 41 42 43 44 45 46 45 44 43 42 42 41 39 37 34 31 29 27 23 18 15 13 9 6 3 3 5 7 10 12 14 18 24 29 34
66 67 67 67 67 67 66 65 65 64 63 60 55 51 49 50 51 53 54 56 57 58 59 59 59 58 59 59 59 59 59 59 59 59 59 58 56 54 51 48 46 44 43 41 41 40 40 39 38 38 39 41 42 43 44 44 44 43 42 41 40 40 39 37 34 31 29 26 23 19 15 13 10 6 3 2 4 7 10 12 15 18 22 27 32
67 67 67 67 66 65 64 63 62 60 57 53 50 50 50 51 52 53 55 56 57 57 57 57 58 58 58 57 57 57 58 58 58 58 58 56 54 51 48 45 43 41 41 40 39 38 37 37 37 37 38 40 41 42 42 43 43 42 41 39 38 37 37 36 34 31 28 26 24 20 16 13 10 7 4 2 4 6 9 12 15 18 21 25 30
65 65 64 64 62 61 60 59 57 54 51 50 50 51 52 52 53 54 55 56 56 56 57 57 57 57 56 56 57 57 57 57 57 57 56 54 51 48 45 43 41 39 39 38 37 36 35 35 35 37 38 39 40 41 41 41 42 41 40 39 37 35 34 33 32 31 28 26 24 21 17 13 10 8 5 3 5 7 10 13 15 18 21 25 29
60 60 60 59 58 57 56 55 53 51 50 51 52 53 53 53 54 54 55 55 55 56 56 56 56 55 56 57 57 57 56 56 56 55 53 50 48 45 43 41 39 38 37 36 35 34 34 34 35 36 37 38 38 39 40 40 40 40 40 38 37 35 33 32 31 31 29 26 25 23 20 15 11 8 6 4 5 7 10 13 16 19 22 25 28
55 55 56 56 55 54 53 51 51 51 51 52 53 54 54 54 54 54 54 54 55 56 56 56 55 55 55 55 55 55 54 54 53 51 49 46 43 41 39 38 38 37 35 34 33 33 33 34 35 36 36 37 37 38 39 38 38 38 38 38 37 36 34 32 31 30 29 27 25 23 21 18 14 9 6 5 5 6 9 12 15 19 22 26 29
52 53 54 53 52 51 50 50 51 51 53 54 54 55 55 55 55 54 54 55 56 56 56 56 56 57 55 54 54 54 53 52 50 47 45 42 39 37 36 35 35 34 34 33 32 32 33 34 35 35 36 36 36 37 37 37 36 36 36 36 36 36 34 32 30 29 28 27 25 23 20 18 15 12 8 5 5 6 9 12 15 19 22 26 30
50 50 50 50 49 49 49 50 51 53 54 55 55 54 54 54 54 54 55 56 56 56 56 56 57 56 55 54 54 54 52 50 47 44 42 39 37 35 34 33 32 32 31 31 32 32 32 33 34 35 35 36 36 36 36 35 35 35 34 35 35 35 34 32 30 29 27 26 25 23 21 19 16 14 11 8 6 6 8 11 14 18 22 25 29
47 48 48 48 48 48 49 51 52 54 54 54 54 53 53 53 54 54 55 56 56 56 55 55 55 54 54 53 52 51 50 48 45 42 39 37 36 35 34 32 31 30 30 30 31 31 32 33 34 35 35 36 36 36 35 34 34 34 33 33 33 34 34 33 31 29 27 26 24 23 22 20 18 15 12 10 8 7 7 9 13 17 21 25 28
47 47 48 48 47 48 49 51 52 53 53 52 52 52 52 53 54 55 55 55 55 54 53 53 53 53 52 51 49 47 45 43 41 39 37 36 35 34 33 32 31 30 30 30 30 31 32 33 34 34 35 36 35 35 34 34 33 33 33 32 32 32 32 32 32 31 29 27 25 23 21 20 19 17 14 11 9 8 8 9 11 15 19 23 27
47 48 48 48 48 49 50 51 51 51 51 51 52 52 53 54 54 54 54 53 52 52 51 51 51 51 50 48 46 44 41 38 37 35 34 33 33 32 32 31 31 30 30 31 31 32 32 32 32 33 34 35 35 34 34 33 33 33 33 32 32 31 31 31 31 31 30 29 27 25 22 20 18 17 16 13 10 9 9 9 11 13 17 21 26
47 47 47 47 47 48 49 49 49 50 50 51 52 53 53 53 52 52 51 51 50 50 50 49 48 47 47 45 43 40 38 35 34 32 32 32 32 31 31 31 31 31 31 31 32 32 33 33 33 33 33 33 34 34 33 33 33 33 33 32 32 32 31 31 31 31 30 30 28 27 24 22 19 17 16 15 12 10 8 9 11 12 15 19 23
45 45 45 44 45 46 47 48 48 49 50 51 51 51 50 50 49 49 49 49 48 48 48 47 45 44 42 41 39 38 36 34 32 31 31 31 32 32 32 33 33 32 32 32 32 32 32 33 33 33 33 33 32 32 32 33 33 32 33 33 33 33 32 32 31 30 29 29 28 27 26 24 22 19 17 15 14 12 10 9 10 12 14 17 20
43 44 45 45 45 46 47 48 49 49 49 49 48 48 47 47 47 47 47 47 47 46 45 44 43 41 39 38 37 36 35 33 32 31 31 32 32 32 33 33 34 34 34 33 33 32 32 31 30 29 30 31 31 31 31 32 32 33 33 33 33 33 33 32 32 31 30 29 28 27 26 25 24 22 19 17 14 13 12 11 10 11 13 15 18
44 45 46 46 46 46 47 47 47 46 46 46 45 45 46 46 46 46 46 45 44 43 42 41 40 38 37 36 36 36 35 35 34 34 33 33 33 33 33 33 33 34 34 34 35 34 34 33 30 27 26 27 29 30 31 31 31 32 33 33 32 32 32 32 32 31 31 30 29 28 27 25 24 23 22 20 18 15 13 12 11 11 12 14 17
45 46 46 45 45 44 44 44 44 44 44 44 44 44 45 45 45 44 43 42 41 41 40 39 38 36 35 35 34 34 34 34 35 35 35 35 34 34 33 33 33 33 34 34 35 35 34 34 34 32 30 29 29 30 31 31 31 32 33 34 34 33 33 32 32 32 31 30 30 28 28 27 25 24 22 21 20 19 16 14 13 12 12 13 15
43 43 43 43 42 42 41 42 42 43 43 43 44 44 43 43 42 41 41 40 39 38 37 37 36 35 35 34 33 33 33 33 33 33 34 34 34 34 34 33 33 32 32 32 33 34 35 35 35 36 36 35 33 32 32 33 33 33 33 34 34 35 34 33 32 32 31 31 30 29 28 28 27 26 24 23 21 20 19 18 16 15 14 14 15
40 39 39 40 40 40 40 41 42 42 42 42 42 42 41 41 40 39 38 37 37 36 36 35 35 35 34 34 33 33 33 33 33 33 33 34 34 33 33 33 32 32 32 32 32 33 34 35 35 36 38 39 38 36 34 33 33 33 32 32 32 33 34 33 33 32 31 31 30 30 29 28 28 27 26 25 24 22 21 20 20 19 17 17 16
Wind_Direction
283 285 286 287 287 288 289 290 290 291 292 292 292 293 293 294 294 295 295 295 296 297 298 298 299 300 300 300 300 301 301 302 302 302 302 302 302 303 303 303 304 304 304 304 304 304 304 304 304 304 303 303 302 302 301 300 299 297 295 293 291 288 285 281 276 273 271 268 265 263 263 262 261 260 258 255 253 250 245 241 239 239 237 237 236
283 284 285 286 287 288 289 290 290 291 291 291 292 292 293 293 293 294 294 294 295 296 297 298 298 299 299 300 300 301 301 302 302 302 302 302 302 303 304 304 304 305 305 305 305 305 305 305 305 304 304 303 302 301 300 299 298 297 295 293 291 289 286 282 278 274 271 269 266 263 262 261 259 259 258 255 253 252 249 243 239 238 237 236 235
282 283 283 284 285 286 287 288 289 289 290 290 291 291 291 292 292 292 293 294 295 296 297 298 298 299 299 300 301 301 301 301 302 302 302 303 304 304 305 305 305 305 306 306 307 307 306 306 305 304 303 302 301 300 299 298 297 296 294 293 291 289 287 284 280 276 273 270 268 264 262 261 259 257 257 256 253 251 250 248 242 238 236 235 234
282 282 282 283 284 285 286 287 288 288 289 289 289 290 290 291 291 292 293 294 296 297 298 298 299 299 300 300 301 301 301 302 302 303 303 304 305 306 306 306 306 307 307 307 307 307 306 305 304 304 303 302 301 300 299 298 297 296 294 293 291 289 287 284 281 278 274 271 269 266 263 261 259 257 256 255 254 251 250 249 246 242 237 234 233
282 283 283 283 284 285 287 287 288 288 288 288 288 289 290 291 292 293 294 296 297 297 298 299 299 300 300 300 301 301 302 302 303 304 305 306 306 307 307 308 308 308 308 307 307 306 305 305 304 303 302 301 300 300 299 298 297 296 295 293 291 290 287 285 283 280 276 273 270 267 264 261 259 258 256 255 254 253 250 248 247 245 241 236 232
282 282 283 284 285 286 287 288 287 287 287 288 289 290 291 292 293 294 295 296 297 298 299 299 299 300 300 301 301 302 303 304 305 306 306 307 307 308 308 309 309 308 308 307 306 306 306 305 304 303 303 302 301 300 300 299 298 297 296 294 292 291 289 286 284 281 278 275 272 269 266 263 260 258 257 255 253 253 251 249 246 245 243 240 235
281 282 283 285 286 286 287 287 287 287 288 289 290 291 292 293 294 295 296 297 298 299 299 299 299 300 300 301 302 304 305 306 307 307 308 308 309 309 309 309 309 308 308 307 307 306 306 305 305 304 303 303 302 302 301 301 300 299 298 296 295 293 291 289 286 283 280 278 274 271 267 265 262 258 256 255 253 251 251 250 248 245 242 241 238
282 283 284 285 285 286 286 286 287 288 289 291 292 293 293 294 295 296 296 297 298 299 299 299 299 300 302 303 304 305 306 307 308 308 309 309 310 310 310 310 309 309 308 308 307 307 307 306 305 305 305 304 304 304 303 303 302 301 300 299 297 296 294 291 289 286 283 280 276 273 269 266 263 260 257 255 253 251 249 249 248 247 243 240 239
283 284 284 285 285 286 286 287 289 290 291 292 293 293 294 295 295 296 297 298 298 298 299 300 301 302 304 305 305 306 307 308 309 309 309 310 310 311 311 311 310 310 309 308 308 308 308 307 307 307 307 306 306 306 306 305 304 303 302 301 300 298 296 294 291 288 285 282 279 275 272 268 265 262 258 256 253 251 249 247 246 246 245 242 238
283 284 284 285 286 287 288 289 290 291 292 293 293 294 294 295 296 296 297 298 299 299 300 302 303 304 305 306 306 307 308 309 309 309 310 311 312 312 312 312 311 310 310 310 310 309 309 309 309 309 309 309 309 309 309 308 307 306 304 303 301 299 297 295 292 289 286 283 280 277 274 271 268 265 261 258 255 252 249 247 245 244 244 243 240
282 283 284 286 286 287 288 289 291 292 293 293 294 294 295 295 296 297 298 299 300 301 303 304 305 305 306 306 307 308 309 310 310 310 311 312 313 314 313 312 312 311 311 311 311 311 311 311 311 311 311 311 311 311 311 310 309 308 306 304 303 300 298 296 293 289 286 283 280 278 276 273 271 268 265 262 259 255 251 248 246 244 243 242 241
283 284 285 286 287 289 290 291 292 293 293 294 295 295 296 296 297 298 300 301 302 303 304 305 305 305 306 307 308 309 310 310 311 311 313 314 315 315 314 313 313 313 313 313 313 313 313 312 312 312 312 313 313 312 311 311 310 308 307 305 304 302 299 296 292 288 285 283 281 279 276 274 272 270 268 265 262 259 255 251 247 245 243 241 240
285 286 287 288 289 290 291 292 293 293 294 295 295 296 297 298 299 300 302 303 304 304 305 305 305 305 306 308 309 310 311 311 312 313 315 316 316 315 314 314 314 314 314 314 314 314 313 313 313 313 314 314 313 313 312 311 310 309 307 306 305 303 300 297 294 290 287 284 281 279 277 274 271 269 268 266 264 261 259 255 250 245 243 242 239
287 287 288 289 290 291 292 292 293 294 295 296 297 298 298 299 300 301 302 303 304 304 304 305 305 306 308 309 310 310 311 312 313 315 316 316 316 315 315 314 314 315 315 314 314 313 313 313 313 314 314 314 313 313 312 311 311 310 309 308 307 305 303 301 298 296 293 289 286 282 279 275 270 267 266 266 265 263 262 259 255 248 243 242 240
287 287 289 290 290 291 292 293 294 294 295 297 297 298 299 300 301 301 302 303 303 304 305 305 306 307 308 309 310 311 312 313 314 315 316 316 316 315 315 315 314 314 314 314 313 313 313 314 314 314 314 314 314 313 313 313 313 312 311 311 310 309 307 305 303 302 300 297 294 290 286 281 274 269 265 264 264 264 264 262 259 254 245 241 240
287 288 289 290 290 291 292 293 294 295 296 297 298 298 299 300 300 301 302 303 303 304 304 305 306 307 308 309 310 311 313 313 314 315 316 316 315 315 315 314 314 314 314 314 314 314 314 315 315 315 315 315 315 316 316 316 316 315 314 314 314 313 311 310 309 307 306 304 301 297 293 287 281 275 269 265 264 263 264 263 261 258 250 242 239
287 288 289 289 290 291 292 293 294 295 296 297 298 298 299 300 300 301 302 302 303 303 304 304 305 307 308 309 310 311 312 313 314 315 315 315 315 314 314 314 314 314 314 314 315 315 316 316 317 317 317 317 318 318 319 318 318 317 317 318 318 316 314 313 312 311 310 308 305 301 296 291 285 280 275 270 266 264 263 263 262 259 253 244 238
286 288 288 289 290 291 292 293 294 295 296 297 298 299 299 300 300 301 301 301 301 302 303 304 305 307 308 309 310 311 312 313 314 314 314 314 314 314 314 314 315 315 315 316 316 317 317 318 318 318 319 319 320 320 320 320 320 320 320 321 319 316 315 314 313 313 312 310 307 304 299 293 287 282 278 275 271 267 263 261 260 257 252 246 238
287 287 288 289 290 291 292 293 294 295 297 298 298 298 299 299 299 300 299 300 301 302 303 304 305 307 308 309 310 311 312 313 313 313 313 313 313 314 315 315 316 316 317 317 318 318 318 319 319 319 320 321 322 322 322 323 322 322 322 321 319 317 315 315 315 314 314 312 310 307 303 299 293 286 281 277 273 269 263 257 255 252 248 245 238
287 288 289 290 291 292 293 294 295 296 297 297 297 298 298 298 298 298 299 299 301 302 303 304 305 306 307 308 309 310 311 312 312 312 312 313 314 315 315 316 317 318 318 319 319 319 319 320 320 321 322 323 323 324 324 325 324 323 323 323 320 318 317 317 317 316 315 313 311 309 307 304 300 293 286 280 275 269 262 254 249 247 244 240 235
288 288 289 290 291 292 293 294 295 296 296 297 297 297 297 297 297 298 298 299 300 301 303 304 305 306 307 308 308 309 310 311 311 312 313 313 315 316 317 318 319 319 320 320 320 320 320 321 321 322 323 324 325 326 327 326 325 324 324 324 322 320 320 320 320 318 316 315 313 311 309 307 303 298 291 285 278 270 260 251 247 245 241 235 231
287 288 289 290 290 292 293 294 295 296 296 296 297 297 297 297 297 297 298 299 300 302 303 304 305 305 306 307 308 309 310 311 312 312 313 314 315 317 318 319 320 320 320 320 320 320 321 322 323 324 324 325 327 328 328 327 326 325 325 325 324 324 324 324 323 321 319 318 317 315 312 310 307 302 297 290 282 271 259 251 248 245 240 232 227
288 288 289 289 291 292 293 294 295 295 296 296 297 297 296 296 297 297 298 299 301 302 303 304 304 305 305 307 308 309 310 311 312 312 313 315 317 319 320 320 320 320 320 320 321 321 321 322 323 324 325 326 328 330 329 328 327 326 326 327 329 329 329 328 327 325 323 322 321 319 316 313 310 306 302 295 285 273 260 253 249 244 236 227 222
288 288 289 290 292 293 293 294 295 296 296 297 296 296 296 296 296 297 298 300 301 302 303 303 304 305 306 307 308 310 311 311 311 312 315 317 319 320 320 320 320 320 320 320 321 321 322 323 324 324 325 327 329 331 331 329 328 328 329 331 333 334 334 333 331 329 328 327 326 324 321 317 313 310 305 298 287 275 263 253 245 236 226 217 213
288 288 289 291 292 292 293 294 295 296 296 296 296 295 295 295 296 297 298 300 302 302 302 303 304 306 307 308 309 310 310 311 312 315 317 319 320 320 319 319 319 320 320 320 321 321 322 323 323 324 326 328 331 333 332 330 330 332 333 335 337 338 337 336 334 332 332 331 330 328 325 320 316 312 307 300 290 276 262 248 236 222 210 204 203
288 288 289 291 291 292 292 293 294 295 295 295 295 295 295 295 295 297 299 300 301 301 302 304 305 306 307 307 308 309 310 312 315 318 319 320 319 319 318 319 319 320 320 320 321 321 322 323 324 326 328 330 332 333 333 334 334 336 337 338 339 340 340 338 336 335 335 335 333 331 328 324 319 314 308 302 292 274 252 234 220 206 197 194 195
287 288 289 289 290 290 291 292 293 293 293 294 294 294 294 294 296 298 299 300 300 301 302 303 304 305 305 306 307 308 311 315 317 319 319 319 318 318 318 318 319 320 320 321 321 322 323 324 326 328 329 330 332 334 336 338 339 339 340 340 340 341 341 340 338 337 338 337 336 333 330 326 322 316 311 305 292 267 236 216 204 195 190 190 192
287 288 288 288 288 289 290 291 291 292 292 292 292 292 293 295 297 298 299 299 300 301 301 302 302 303 304 306 308 311 315 317 318 318 318 317 316 317 318 319 319 320 320 321 322 322 323 325 327 328 329 331 333 336 339 341 342 341 341 341 341 341 342 341 340 340 341 340 339 337 332 327 324 319 313 307 289 248 216 203 195 188 186 188 190
287 287 287 287 287 288 289 289 290 290 290 291 291 293 294 296 297 297 298 299 299 299 300 300 302 303 305 308 312 315 316 317 317 316 316 315 316 317 318 319 320 321 321 321 322 322 324 326 327 329 330 332 333 337 341 343 343 342 341 342 342 342 343 343 342 342 343 343 342 340 336 330 326 321 314 306 270 215 199 194 190 186 185 187 189
286 286 285 285 286 287 288 288 288 289 289 290 292 293 295 295 296 296 297 297 298 298 299 301 303 306 309 312 314 315 316 316 315 314 314 315 316 318 319 320 320 321 321 321 321 322 323 325 327 329 331 332 334 337 341 343 343 343 342 342 342 343 344 344 343 343 345 346 345 343 338 332 328 322 311 287 208 189 190 190 188 186 185 187 188
285 285 284 285 285 286 286 287 287 288 289 291 292 293 293 294 295 295 296 297 298 300 301 303 305 308 311 313 314 314 315 314 313 312 313 315 317 318 319 320 320 320 320 320 320 321 323 325 327 329 331 333 335 337 340 343 343 343 343 343 343 344 346 346 345 344 345 346 347 346 341 335 330 323 305 248 188 182 187 190 190 188 186 187 189
284 284 284 284 284 285 285 286 287 288 289 290 291 291 292 293 294 295 296 298 300 301 303 305 308 311 312 313 313 313 313 311 311 312 315 317 318 318 319 319 319 319 319 319 320 321 323 325 328 329 331 334 337 338 339 342 344 344 344 344 344 344 346 347 346 343 343 346 349 349 344 338 332 324 299 229 185 180 185 190 193 192 189 188 190
282 282 282 282 283 284 285 286 286 287 288 289 290 291 292 293 294 296 298 300 302 304 306 308 310 311 311 312 312 311 310 309 311 314 316 317 318 318 318 318 318 318 318 318 319 321 323 325 328 330 332 335 338 339 339 341 344 345 345 345 345 345 346 347 348 347 346 348 350 351 348 342 335 326 299 235 190 176 179 187 193 196 194 191 191
280 280 280 281 282 283 284 285 286 286 287 288 290 291 292 294 297 299 301 303 304 306 307 307 308 309 310 310 309 307 308 310 313 315 316 317 317 317 317 318 317 317 317 318 319 321 323 326 327 330 333 336 338 339 340 340 343 345 346 346 347 346 347 348 351 351 350 348 350 353 352 346 338 328 307 254 205 184 179 183 190 197 200 197 194
278 279 279 280 281 281 282 283 284 285 286 288 291 294 296 298 300 301 302 303 304 304 305 306 308 308 308 306 306 307 310 313 315 316 316 316 316 316 317 317 316 316 316 318 320 321 323 325 327 331 335 337 338 339 340 340 342 344 346 348 349 349 349 350 352 353 352 350 350 352 353 350 342 330 313 261 220 198 187 185 187 194 201 203 201
276 277 277 278 279 280 281 281 282 284 287 291 295 297 298 299 300 301 301 302 303 304 306 307 306 305 304 304 307 310 313 314 315 315 315 315 315 316 316 315 315 316 317 318 319 319 321 324 328 332 335 337 338 338 339 340 341 343 345 348 350 351 351 351 351 353 353 353 352 352 354 353 346 332 310 246 215 204 195 190 189 191 196 203 206
274 274 275 276 277 278 279 281 283 287 291 295 296 297 298 299 300 301 302 303 304 305 306 305 304 304 306 308 311 312 313 314 314 315 314 314 315 315 315 314 315 316 316 317 317 318 321 326 330 333 335 336 337 338 339 340 341 342 344 347 350 352 354 353 352 353 355 356 355 353 353 354 351 338 316 264 217 205 201 195 192 192 195 199 204
273 274 274 275 276 278 280 283 287 291 294 296 296 297 298 299 300 301 302 303 304 304 304 303 304 307 310 311 312 312 313 313 314 313 313 314 314 314 314 314 315 315 315 315 316 319 324 328 331 333 334 336 337 338 339 341 342 342 343 346 349 352 354 356 356 355 355 357 358 355 353 352 351 344 325 290 238 212 205 201 196 195 196 197 201
271 272 273 275 277 280 283 287 290 292 294 294 295 296 297 299 300 301 302 303 303 302 303 304 306 308 309 310 310 311 312 312 312 312 312 313 312 312 312 312 312 313 314 316 319 322 326 328 330 331 333 335 337 338 339 341 342 343 344 345 348 350 354 357 359 358 356 357 358 357 355 351 348 344 334 305 264 229 211 205 202 199 198 198 200
268 270 273 276 279 283 286 288 289 291 292 293 294 295 297 298 300 301 301 301 302 303 305 307 308 308 309 309 310 311 311 311 311 311 312 311 310 310 310 311 312 314 316 318 321 324 326 327 329 330 331 334 336 338 339 340 342 343 344 345 347 349 352 356 360 1 359 357 356 357 357 355 350 342 334 315 279 245 223 212 206 204 202 202 202
271 274 276 279 282 284 286 287 288 289 290 291 292 294 296 298 298 299 300 301 302 304 306 307 307 307 308 310 311 311 311 311 311 311 311 311 310 311 312 313 313 314 316 318 321 323 325 325 327 328 330 333 335 337 339 340 342 343 345 346 346 347 350 353 357 0 2 0 357 355 356 358 355 347 336 322 296 260 235 221 213 209 206 206 205
276 277 279 280 282 283 284 285 286 287 288 289 291 293 295 296 297 298 300 301 303 304 305 305 305 306 308 309 310 310 310 310 311 311 311 311 312 313 313 313 313 313 315 317 320 321 323 324 326 328 330 332 334 336 338 339 341 342 344 346 347 347 348 351 354 357 0 2 1 358 356 356 355 352 344 329 310 282 250 230 220 215 211 209 209
277 277 278 280 281 282 283 283 284 286 287 290 291 293 294 295 296 297 299 300 301 302 303 304 305 306 307 307 308 308 308 309 309 310 310 311 312 312 312 311 312 313 314 316 318 320 322 323 326 327 329 330 333 335 336 338 340 342 343 345 346 347 348 349 351 353 356 359 1 1 359 356 353 352 349 339 321 299 273 247 229 220 216 213 212
276 277 278 280 281 282 282 283 285 286 288 289 290 291 292 294 295 296 298 299 300 301 302 303 304 305 305 306 306 306 306 307 307 307 308 309 309 309 309 309 310 312 313 315 317 318 320 322 324 326 327 329 331 333 335 336 338 340 342 343 344 346 348 349 350 350 352 355 357 358 359 357 353 350 348 343 333 312 289 267 246 231 221 217 216
274 275 276 277 279 280 281 282 284 285 286 287 288 289 290 292 294 295 297 298 299 300 301 302 303 303 303 303 304 304 305 305 305 305 306 306 306 306 306 307 308 309 311 313 316 318 319 322 324 326 327 328 330 332 334 335 336 338 339 341 342 344 346 347 348 349 350 351 352 353 354 355 354 351 347 343 338 327 306 281 262 247 234 224 219
274 275 276 277 278 278 279 280 282 282 284 285 286 288 291 292 294 295 296 297 298 299 300 300 301 301 301 301 301 302 302 302 303 304 304 304 304 305 305 306 308 309 312 314 315 317 319 321 324 326 326 327 329 331 331 332 333 335 337 339 340 341 342 344 345 346 347 347 348 349 349 350 350 349 346 342 338 332 320 300 276 259 247 237 228
274 275 276 277 277 278 279 280 281 283 284 286 288 290 292 293 294 295 296 297 298 298 298 299 299 299 299 299 300 300 300 300 301 302 302 302 303 304 305 307 309 310 312 313 314 316 317 319 322 325 325 325 326 327 328 329 330 332 334 336 336 337 338 339 340 341 342 343 344 344 345 346 345 345 343 341 336 330 322 311 294 273 257 247 239
275 275 276 277 278 280 281 282 284 286 287 289 290 291 292 293 294 295 295 296 296 297 297 297 297 298 298 299 300 301 301 302 303 303 303 303 304 304 305 306 308 310 312 314 315 316 318 319 320 322 322 322 323 324 325 326 328 329 330 331 331 332 333 334 335 336 337 338 339 340 340 341 341 340 339 337 334 329 321 312 302 287 271 256 247
275 277 278 280 281 282 284 285 287 288 289 289 290 291 292 292 293 293 294 294 294 294 294 295 295 295 296 297 297 298 300 301 302 303 304 304 305 306 306 308 309 311 312 314 315 317 318 319 320 320 320 320 321 322 322 323 325 326 326 327 327 328 329 329 330 331 332 333 334 334 335 335 335 336 335 334 331 328 322 314 304 293 281 268 256
276 278 280 281 283 284 285 286 286 287 288 289 289 290 290 290 291 291 292 292 292 293 293 293 294 294 294 295 295 295 296 296 297 299 300 302 303 305 306 308 310 311 312 314 315 316 318 319 320 320 320 320 320 320 321 321 322 323 324 324 324 325 325 326 327 327 328 329 330 330 331 331 331 330 330 330 328 325 322 317 310 301 290 277 265
277 278 280 281 282 283 283 284 285 285 286 287 287 288 288 289 289 289 289 290 291 292 292 293 294 295 296 297 297 298 298 298 299 299 300 302 303 305 307 309 311 312 313 314 315 315 316 317 318 318 317 317 317 317 318 318 317 318 320 321 321 321 322 323 324 325 326 327 328 328 329 329 328 328 327 326 325 323 321 317 313 307 299 289 278
Height
10685 10684 10683 10681 10680 10678 10677 10676 10674 10673 10671 10668 10666 10663 10661 10659 10656 10654 10651 10649 10647 10645 10642 10640 10637 10634 10631 10627 10624 10620 10617 10613 10610 10606 10602 10598 10594 10590 10586 10582 10578 10574 10569 10565 10560 10554 10549 10545 10541 10536 10532 10527 10522 10518 10514 10511 10508 10505 10503 10501 10498 10497 10497 10496 10497 10496 10490 10487 10488 10486 10483 10482 10481 10480 10483 10486 10486 10489 10493 10496 10498 10501 10505 10508 10510
10680 10679 10677 10676 10674 10673 10671 10670 10668 10667 10664 10662 10660 10657 10655 10653 10650 10648 10645 10643 10641 10639 10637 10634 10631 10627 10624 10620 10617 10613 10610 10606 10602 10598 10594 10590 10586 10583 10578 10574 10569 10564 10560 10555 10550 10544 10538 10533 10529 10525 10521 10517 10512 10507 10503 10500 10497 10494 10491 10489 10486 10484 10484 10483 10483 10483 10480 10475 10474 10475 10472 10471 10471 10468 10468 10472 10474 10475 10477 10481 10485 10488 10492 10495 10498
10674 10673 10672 10671 10669 10668 10666 10664 10663 10661 10659 10657 10655 10652 10650 10647 10644 10642 10639 10637 10636 10633 10630 10627 10624 10620 10617 10613 10609 10606 10602 10598 10595 10590 10586 10582 10578 10574 10570 10565 10560 10555 10549 10545 10540 10534 10528 10522 10518 10514 10510 10506 10501 10496 10493 10489 10486 10483 10480 10477 10475 10472 10470 10470 10469 10469 10468 10464 10461 10461 10460 10458 10459 10458 10456 10458 10461 10462 10463 10466 10470 10475 10478 10482 10486
10668 10667 10666 10664 10664 10663 10661 10659 10658 10656 10653 10651 10649 10646 10644 10641 10638 10635 10633 10631 10629 10626 10623 10620 10617 10613 10609 10606 10602 10599 10595 10591 10587 10582 10578 10574 10570 10565 10561 10556 10551 10545 10540 10535 10530 10525 10519 10513 10507 10503 10499 10495 10490 10485 10481 10478 10475 10472 10469 10466 10463 10461 10458 10456 10455 10454 10454 10452 10449 10448 10448 10447 10445 10445 10445 10445 10446 10449 10451 10452 10455 10460 10464 10468 10473
10662 10661 10659 10658 10657 10657 10655 10653 10652 10650 10647 10645 10643 10640 10638 10634 10631 10629 10626 10625 10622 10619 10616 10613 10609 10605 10602 10599 10595 10591 10587 10583 10579 10575 10570 10566 10561 10557 10552 10547 10542 10536 10531 10526 10521 10516 10510 10503 10497 10493 10489 10484 10480 10475 10470 10466 10463 10460 10458 10455 10451 10448 10446 10443 10442 10440 10439 10438 10436 10434 10433 10434 10433 10432 10431 10432 10433 10434 10436 10438 10440 10444 10448 10453 10459
10656 10654 10652 10651 10651 10651 10649 10647 10645 10643 10641 10639 10636 10634 10631 10628 10625 10622 10620 10618 10615 10612 10609 10605 10602 10598 10595 10591 10588 10584 10580 10575 10571 10567 10563 10558 10553 10548 10543 10538 10532 10527 10521 10516 10512 10507 10501 10494 10487 10482 10478 10473 10469 10464 10459 10455 10451 10448 10446 10442 10439 10436 10433 10430 10428 10426 10424 10423 10422 10420 10419 10419 10420 10419 10417 10418 10420 10420 10421 10424 10427 10429 10433 10437 10443
10650 10648 10646 10645 10645 10644 10642 10640 10638 10636 10634 10632 10630 10627 10624 10621 10618 10615 10613 10611 10608 10605 10602 10598 10595 10591 10588 10584 10580 10576 10572 10568 10564 10559 10555 10550 10545 10540 10534 10529 10524 10518 10512 10506 10502 10497 10492 10485 10479 10472 10466 10462 10457 10453 10449 10443 10438 10435 10433 10430 10426 10423 10419 10416 10413 10411 10409 10407 10405 10405 10404 10403 10403 10404 10403 10403 10405 10406 10407 10409 10412 10414 10418 10422 10427
10644 10642 10641 10639 10639 10637 10635 10633 10631 10630 10628 10626 10623 10620 10617 10614 10611 10608 10606 10604 10601 10598 10595 10591 10588 10584 10581 10577 10573 10569 10565 10561 10556 10552 10547 10542 10537 10531 10525 10520 10515 10509 10503 10496 10491 10487 10482 10476 10471 10464 10456 10451 10446 10441 10437 10433 10427 10423 10420 10417 10413 10410 10406 10403 10400 10397 10395 10392 10390 10389 10388 10387 10387 10388 10388 10387 10389 10391 10392 10394 10397 10398 10402 10408 10412
10637 10636 10634 10633 10632 10630 10628 10626 10625 10623 10621 10619 10616 10613 10610 10607 10604 10602 10599 10597 10595 10591 10588 10584 10581 10577 10574 10570 10566 10562 10558 10554 10549 10545 10540 10534 10529 10523 10517 10511 10505 10500 10494 10487 10482 10477 10472 10466 10460 10454 10447 10440 10434 10429 10425 10421 10416 10412 10408 10405 10401 10397 10394 10391 10388 10385 10381 10378 10375 10374 10373 10372 10371 10371 10372 10372 10373 10375 10376 10379 10383 10384 10385 10393 10398
10631 10629 10628 10627 10625 10623 10621 10620 10618 10616 10614 10612 10609 10607 10604 10601 10598 10595 10593 10591 10588 10584 10581 10577 10574 10570 10566 10562 10559 10555 10551 10547 10542 10537 10532 10526 10520 10514 10508 10502 10496 10491 10484 10478 10473 10468 10462 10456 10449 10443 10437 10430 10423 10417 10412 10407 10403 10399 10396 10393 10390 10387 10383 10380 10376 10373 10370 10365 10362 10360 10359 10358 10356 10356 10357 10357 10357 10359 10361 10363 10368 10370 10370 10377 10384
10625 10623 10622 10620 10618 10617 10615 10613 10612 10610 10608 10606 10603 10600 10597 10595 10592 10589 10587 10584 10581 10578 10574 10570 10567 10563 10559 10555 10551 10547 10543 10539 10534 10529 10523 10518 10512 10505 10500 10493 10487 10482 10475 10469 10464 10458 10452 10447 10440 10433 10427 10421 10414 10407 10401 10396 10391 10387 10383 10380 10377 10375 10372 10369 10366 10362 10358 10354 10350 10348 10347 10346 10343 10341 10341 10342 10342 10344 10346 10349 10352 10355 10357 10363 10370
10619 10617 10616 10614 10612 10610 10608 10607 10605 10603 10601 10599 10596 10594 10591 10588 10586 10583 10581 10578 10574 10571 10567 10564 10560 10556 10552 10548 10544 10540 10536 10531 10526 10521 10515 10509 10503 10497 10491 10485 10479 10473 10467 10460 10454 10448 10442 10437 10430 10424 10418 10412 10405 10398 10392 10386 10381 10376 10371 10368 10365 10362 10359 10357 10354 10351 10348 10344 10340 10337 10335 10335 10332 10328 10327 10327 10327 10327 10330 10334 10338 10342 10345 10351 10357
10612 10611 10609 10607 10605 10603 10602 10600 10598 10597 10595 10593 10590 10588 10585 10582 10579 10576 10574 10571 10568 10564 10561 10557 10553 10549 10545 10541 10537 10533 10528 10523 10518 10513 10507 10501 10495 10489 10483 10477 10471 10465 10458 10452 10445 10439 10433 10427 10421 10415 10409 10403 10397 10390 10384 10378 10372 10366 10361 10357 10354 10350 10347 10343 10340 10339 10336 10334 10331 10327 10324 10324 10322 10317 10313 10312 10312 10312 10314 10318 10324 10330 10334 10338 10344
10606 10604 10602 10600 10599 10597 10595 10594 10592 10590 10588 10586 10584 10581 10578 10575 10573 10570 10567 10564 10561 10558 10554 10550 10546 10542 10538 10534 10530 10525 10521 10516 10511 10505 10499 10493 10487 10481 10475 10469 10463 10457 10451 10444 10437 10431 10425 10419 10413 10407 10401 10395 10390 10383 10377 10371 10364 10357 10351 10347 10343 10339 10336 10332 10328 10326 10323 10322 10320 10317 10314 10313 10310 10306 10302 10299 10299 10299 10302 10305 10309 10317 10323 10326 10331
10599 10597 10596 10594 10592 10591 10589 10587 10586 10584 10582 10580 10578 10575 10572 10569 10566 10563 10560 10557 10554 10550 10547 10543 10539 10535 10531 10527 10522 10518 10513 10508 10503 10497 10491 10486 10480 10474 10468 10461 10455 10449 10443 10437 10430 10423 10417 10411 10405 10399 10394 10388 10382 10376 10370 10363 10356 10349 10343 10338 10334 10328 10324 10321 10318 10315 10312 10309 10308 10306 10303 10301 10298 10296 10292 10290 10288 10288 10290 10293 10297 10304 10313 10316 10318
10592 10591 10590 10588 10586 10584 10583 10581 10579 10577 10576 10574 10571 10568 10565 10562 10559 10556 10553 10550 10547 10543 10539 10535 10532 10528 10524 10520 10515 10511 10506 10501 10496 10490 10484 10478 10472 10466 10460 10454 10448 10442 10436 10429 10422 10416 10410 10404 10398 10392 10386 10380 10374 10368 10362 10356 10349 10342 10336 10330 10325 10319 10314 10310 10307 10304 10301 10298 10296 10294 10293 10290 10287 10285 10283 10281 10280 10279 10281 10283 10286 10293 10300 10304 10306
10586 10585 10583 10581 10579 10578 10576 10575 10573 10571 10569 10567 10565 10562 10559 10556 10552 10549 10546 10542 10539 10536 10532 10528 10525 10521 10517 10513 10508 10504 10499 10494 10488 10482 10476 10470 10465 10459 10453 10447 10441 10435 10428 10422 10416 10409 10402 10396 10390 10384 10378 10372 10366 10361 10355 10349 10342 10336 10329 10324 10317 10311 10306 10301 10297 10293 10291 10288 10285 10283 10282 10280 10277 10275 10274 10273 10271 10271 10273 10274 10278 10283 10287 10290 10294
10579 10578 10576 10574 10573 10572 10570 10568 10566 10564 10562 10560 10558 10555 10552 10549 10546 10542 10539 10535 10532 10529 10526 10522 10518 10514 10510 10506 10501 10497 10492 10487 10481 10475 10469 10464 10458 10452 10446 10440 10434 10427 10421 10414 10408 10402 10395 10389 10383 10377 10371 10365 10359 10354 10348 10342 10336 10330 10324 10319 10312 10305 10300 10295 10290 10285 10282 10278 10275 10273 10272 10271 10268 10266 10264 10264 10263 10263 10265 10266 10269 10273 10275 10279 10285
10573 10571 10569 10568 10566 10565 10563 10561 10559 10558 10556 10553 10551 10548 10545 10542 10539 10535 10532 10529 10525 10522 10519 10515 10511 10507 10503 10499 10495 10490 10485 10480 10475 10469 10463 10457 10451 10445 10439 10432 10426 10419 10413 10406 10400 10394 10388 10382 10376 10371 10365 10359 10353 10347 10342 10336 10330 10324 10319 10315 10308 10301 10295 10290 10285 10280 10275 10271 10267 10264 10262 10261 10261 10259 10257 10256 10255 10255 10257 10258 10260 10263 10266 10270 10276
10566 10564 10562 10561 10559 10557 10556 10554 10552 10551 10549 10546 10544 10541 10538 10535 10532 10528 10525 10522 10519 10516 10513 10509 10505 10500 10496 10492 10488 10484 10479 10474 10468 10462 10456 10450 10444 10438 10431 10425 10418 10411 10405 10398 10392 10386 10380 10375 10369 10364 10358 10352 10347 10341 10335 10330 10324 10319 10314 10310 10304 10297 10290 10285 10280 10275 10271 10266 10262 10258 10256 10255 10254 10252 10251 10250 10249 10249 10250 10250 10252 10255 10258 10263 10268
10559 10557 10555 10554 10552 10550 10549 10547 10546 10544 10541 10539 10536 10534 10531 10528 10524 10521 10518 10515 10512 10509 10506 10502 10498 10494 10490 10486 10481 10477 10473 10467 10461 10455 10449 10443 10438 10431 10424 10418 10411 10404 10398 10391 10385 10379 10373 10368 10362 10357 10352 10347 10342 10336 10330 10324 10319 10313 10309 10305 10299 10292 10286 10281 10275 10270 10265 10262 10258 10254 10251 10250 10248 10246 10245 10244 10244 10244 10244 10244 10245 10248 10253 10257 10262
10552 10550 10548 10547 10545 10544 10542 10541 10539 10536 10534 10532 10529 10526 10524 10520 10517 10514 10511 10508 10505 10502 10499 10495 10491 10487 10484 10480 10475 10471 10466 10460 10454 10448 10443 10437 10431 10425 10418 10411 10405 10398 10392 10386 10380 10374 10368 10362 10356 10351 10346 10341 10336 10331 10325 10319 10314 10308 10304 10299 10293 10287 10281 10276 10271 10266 10261 10257 10254 10250 10247 10245 10243 10242 10240 10240 10239 10239 10239 10240 10241 10244 10248 10253 10257
10545 10543 10541 10540 10539 10538 10536 10534 10531 10529 10527 10524 10522 10519 10516 10513 10510 10507 10504 10501 10498 10496 10492 10488 10484 10480 10477 10473 10469 10464 10459 10454 10448 10442 10437 10431 10424 10418 10412 10406 10400 10393 10387 10380 10374 10368 10362 10357 10351 10346 10341 10337 10332 10327 10322 10315 10310 10304 10299 10294 10289 10282 10276 10271 10266 10261 10257 10253 10250 10247 10243 10241 10239 10238 10237 10236 10235 10235 10236 10237 10239 10242 10245 10250 10254
10538 10536 10534 10534 10533 10531 10529 10527 10525 10522 10520 10517 10515 10512 10509 10505 10502 10499 10496 10494 10492 10489 10485 10481 10477 10473 10469 10464 10460 10456 10452 10447 10442 10437 10431 10424 10418 10412 10407 10401 10395 10388 10382 10376 10369 10363 10358 10352 10347 10342 10338 10333 10329 10324 10318 10312 10306 10301 10295 10290 10284 10278 10271 10266 10261 10257 10253 10250 10246 10244 10241 10238 10236 10235 10234 10233 10232 10233 10233 10235 10237 10240 10243 10247 10252
10531 10529 10528 10527 10526 10524 10521 10520 10518 10516 10513 10510 10507 10504 10501 10498 10495 10492 10490 10488 10485 10482 10478 10474 10470 10466 10461 10456 10452 10448 10444 10440 10435 10430 10424 10418 10412 10407 10401 10396 10390 10383 10377 10371 10365 10359 10354 10349 10344 10339 10334 10329 10325 10320 10315 10308 10302 10297 10291 10286 10280 10275 10268 10262 10258 10254 10250 10247 10244 10241 10239 10237 10234 10233 10231 10230 10230 10231 10232 10233 10235 10238 10241 10245 10248
10523 10522 10522 10521 10519 10516 10514 10513 10511 10508 10506 10503 10500 10497 10494 10491 10488 10486 10484 10481 10478 10474 10470 10466 10463 10458 10454 10450 10446 10442 10438 10433 10428 10423 10417 10412 10407 10401 10396 10390 10385 10379 10373 10367 10361 10355 10350 10345 10340 10335 10329 10325 10321 10317 10312 10305 10299 10293 10287 10282 10277 10272 10267 10261 10256 10252 10248 10245 10242 10239 10237 10235 10233 10231 10230 10229 10229 10229 10230 10231 10234 10236 10239 10242 10245
10516 10515 10515 10514 10511 10509 10508 10506 10504 10501 10498 10495 10492 10490 10487 10484 10481 10479 10477 10474 10470 10467 10463 10459 10456 10452 10448 10444 10441 10436 10432 10427 10422 10417 10412 10407 10401 10396 10390 10385 10379 10374 10368 10362 10356 10351 10346 10341 10336 10331 10326 10321 10317 10313 10308 10302 10295 10289 10284 10279 10274 10269 10265 10260 10255 10251 10248 10244 10241 10238 10236 10234 10232 10230 10229 10228 10228 10229 10229 10231 10233 10235 10237 10240 10243
10509 10509 10508 10506 10503 10502 10501 10498 10496 10493 10490 10488 10485 10482 10479 10477 10475 10472 10470 10467 10463 10460 10456 10453 10449 10446 10442 10438 10434 10430 10425 10420 10416 10411 10406 10401 10396 10391 10385 10379 10374 10368 10362 10357 10351 10346 10341 10337 10333 10328 10323 10318 10313 10309 10304 10299 10293 10287 10282 10277 10272 10267 10262 10257 10253 10249 10246 10243 10240 10238 10235 10233 10231 10230 10228 10228 10228 10228 10229 10231 10232 10234 10236 10239 10241
10502 10502 10500 10497 10495 10494 10493 10490 10488 10485 10483 10480 10477 10475 10473 10471 10468 10465 10462 10459 10456 10453 10450 10446 10443 10439 10436 10432 10427 10423 10418 10414 10410 10405 10401 10396 10390 10385 10380 10374 10369 10363 10357 10352 10347 10342 10338 10334 10330 10325 10321 10316 10311 10307 10302 10297 10292 10286 10280 10275 10271 10266 10261 10256 10252 10248 10245 10242 10239 10237 10235 10233 10231 10229 10228 10228 10228 10228 10229 10231 10232 10234 10236 10238 10241
10495 10494 10491 10489 10488 10486 10484 10482 10480 10478 10475 10473 10470 10468 10466 10464 10461 10458 10455 10452 10449 10446 10443 10439 10436 10433 10429 10425 10421 10417 10413 10408 10404 10399 10395 10390 10384 10379 10374 10369 10364 10359 10354 10348 10344 10339 10335 10332 10328 10324 10320 10315 10310 10305 10301 10296 10291 10286 10281 10275 10270 10265 10260 10255 10251 10247 10245 10242 10239 10237 10235 10233 10231 10229 10228 10227 10228 10228 10229 10230 10232 10234 10236 10238 10241
10487 10485 10482 10481 10479 10478 10476 10473 10472 10470 10468 10466 10464 10462 10459 10457 10454 10451 10448 10445 10442 10439 10436 10433 10430 10426 10423 10419 10415 10411 10407 10403 10399 10394 10389 10384 10379 10374 10369 10364 10359 10354 10350 10346 10341 10337 10333 10329 10326 10322 10318 10314 10309 10304 10300 10296 10291 10286 10281 10275 10270 10265 10261 10256 10251 10247 10244 10242 10240 10237 10235 10233 10231 10230 10229 10228 10228 10229 10230 10231 10233 10234 10236 10238 10241
10478 10476 10474 10472 10471 10469 10467 10466 10464 10462 10461 10459 10457 10455 10453 10450 10447 10444 10441 10438 10436 10433 10429 10426 10423 10420 10416 10413 10409 10406 10402 10397 10393 10388 10383 10378 10373 10369 10364 10360 10355 10350 10346 10342 10338 10335 10331 10327 10324 10320 10316 10312 10307 10303 10298 10294 10290 10286 10281 10275 10270 10265 10261 10258 10253 10248 10245 10242 10240 10237 10235 10234 10232 10231 10230 10229 10229 10230 10231 10233 10234 10236 10237 10239 10242
10469 10467 10464 10463 10462 10461 10459 10458 10456 10455 10453 10452 10450 10448 10446 10444 10441 10438 10435 10432 10429 10426 10423 10420 10417 10414 10411 10407 10404 10400 10396 10392 10387 10382 10378 10373 10369 10364 10360 10355 10351 10347 10343 10339 10336 10332 10329 10325 10322 10318 10314 10310 10306 10302 10297 10293 10289 10285 10280 10275 10270 10265 10261 10257 10253 10249 10245 10242 10240 10238 10236 10234 10233 10232 10231 10230 10230 10230 10232 10234 10236 10238 10239 10240 10243
10460 10458 10456 10455 10454 10453 10451 10450 10448 10447 10445 10444 10443 10442 10440 10437 10434 10431 10428 10425 10422 10420 10417 10414 10412 10409 10405 10402 10398 10394 10390 10386 10381 10377 10372 10368 10364 10359 10355 10351 10347 10343 10340 10336 10333 10329 10326 10323 10319 10316 10312 10308 10304 10300 10296 10291 10288 10284 10280 10275 10270 10264 10260 10256 10252 10248 10245 10242 10240 10238 10236 10235 10234 10233 10232 10232 10231 10231 10232 10234 10236 10239 10241 10242 10243
10450 10448 10447 10446 10445 10444 10443 10442 10441 10439 10438 10437 10437 10435 10433 10430 10427 10425 10422 10419 10417 10414 10411 10409 10406 10403 10399 10396 10392 10388 10384 10379 10375 10371 10367 10363 10359 10355 10351 10347 10344 10340 10337 10334 10330 10327 10324 10321 10317 10313 10310 10306 10302 10299 10295 10291 10287 10283 10279 10275 10270 10265 10260 10256 10252 10249 10246 10242 10240 10239 10237 10235 10234 10234 10233 10233 10233 10233 10233 10234 10236 10239 10242 10244 10246
10441 10439 10438 10438 10437 10436 10435 10434 10433 10432 10431 10431 10430 10428 10426 10423 10421 10419 10416 10414 10411 10408 10405 10402 10400 10397 10394 10390 10386 10382 10378 10374 10369 10365 10361 10357 10354 10350 10347 10344 10341 10337 10334 10331 10328 10325 10322 10319 10315 10311 10308 10304 10301 10297 10294 10290 10286 10282 10279 10276 10271 10266 10261 10257 10253 10250 10247 10243 10241 10239 10237 10236 10235 10234 10234 10233 10233 10234 10234 10235 10236 10239 10242 10245 10248
10432 10431 10430 10429 10429 10428 10427 10426 10426 10426 10425 10424 10423 10421 10419 10417 10415 10413 10410 10407 10404 10401 10398 10396 10393 10390 10386 10382 10379 10375 10372 10368 10364 10360 10356 10352 10349 10345 10343 10340 10337 10334 10331 10328 10325 10323 10320 10316 10312 10309 10306 10302 10299 10296 10292 10289 10285 10281 10278 10275 10271 10267 10263 10259 10254 10251 10247 10244 10241 10239 10238 10237 10235 10235 10234 10234 10234 10234 10235 10235 10237 10238 10241 10244 10247
10424 10423 10422 10422 10422 10421 10420 10419 10419 10419 10418 10417 10416 10414 10413 10411 10409 10407 10404 10401 10398 10395 10393 10390 10387 10384 10380 10377 10373 10370 10366 10363 10359 10356 10352 10348 10345 10341 10338 10336 10333 10331 10329 10326 10323 10320 10317 10313 10310 10307 10304 10301 10298 10294 10291 10287 10284 10280 10277 10273 10270 10267 10263 10259 10255 10251 10248 10245 10243 10240 10238 10237 10236 10235 10235 10234 10234 10234 10235 10236 10237 10238 10240 10242 10246
10417 10415 10415 10415 10415 10414 10414 10414 10413 10413 10412 10411 10409 10408 10406 10404 10402 10400 10397 10395 10392 10390 10387 10384 10381 10378 10375 10373 10369 10365 10362 10358 10355 10351 10348 10345 10341 10338 10336 10333 10330 10328 10326 10323 10320 10317 10314 10311 10308 10305 10302 10299 10296 10293 10289 10286 10283 10279 10276 10272 10269 10266 10263 10259 10255 10252 10249 10246 10244 10241 10239 10237 10236 10236 10235 10235 10235 10235 10235 10236 10237 10238 10239 10241 10244
10410 10409 10408 10409 10409 10409 10408 10408 10407 10407 10406 10404 10403 10401 10399 10397 10395 10393 10391 10388 10386 10383 10380 10376 10373 10370 10368 10366 10363 10360 10357 10354 10350 10347 10344 10341 10338 10336 10333 10331 10328 10324 10322 10319 10316 10314 10311 10308 10306 10303 10300 10297 10295 10291 10288 10285 10282 10278 10275 10272 10268 10265 10262 10259 10256 10253 10250 10247 10244 10242 10240 10238 10237 10236 10235 10235 10235 10235 10235 10236 10237 10237 10239 10240 10242
10404 10403 10403 10403 10403 10403 10403 10402 10401 10401 10399 10398 10396 10395 10393 10391 10389 10387 10384 10382 10380 10377 10374 10370 10367 10363 10361 10359 10355 10352 10349 10347 10345 10342 10339 10336 10334 10332 10329 10327 10324 10321 10319 10316 10313 10311 10309 10306 10304 10301 10298 10295 10293 10290 10287 10284 10281 10277 10274 10271 10268 10265 10262 10259 10256 10253 10250 10248 10245 10243 10241 10239 10237 10236 10235 10235 10235 10235 10235 10236 10236 10237 10238 10239 10241
10399 10398 10398 10398 10398 10397 10397 10396 10396 10395 10393 10392 10390 10389 10387 10385 10383 10380 10378 10376 10373 10371 10368 10365 10361 10358 10356 10353 10350 10347 10344 10341 10338 10336 10334 10331 10329 10327 10325 10323 10321 10318 10316 10313 10311 10309 10306 10304 10301 10299 10296 10293 10290 10288 10285 10282 10279 10276 10273 10270 10267 10264 10261 10258 10255 10253 10251 10248 10246 10243 10241 10239 10238 10237 10236 10235 10234 10234 10235 10235 10236 10236 10237 10238 10239
10393 10392 10392 10392 10392 10392 10391 10390 10390 10388 10387 10385 10384 10382 10380 10379 10376 10374 10372 10370 10367 10365 10362 10359 10356 10353 10351 10349 10346 10343 10340 10337 10334 10331 10329 10327 10325 10323 10321 10319 10317 10315 10313 10311 10308 10306 10304 10301 10299 10296 10293 10291 10288 10286 10283 10280 10277 10275 10272 10269 10267 10264 10261 10257 10255 10252 10250 10248 10246 10244 10242 10240 10238 10237 10236 10235 10234 10234 10234 10234 10235 10236 10236 10237 10238
10387 10386 10386 10386 10386 10385 10385 10384 10383 10381 10380 10379 10377 10376 10374 10372 10370 10368 10366 10363 10361 10359 10356 10354 10351 10348 10345 10343 10342 10339 10337 10334 10332 10329 10326 10324 10322 10320 10318 10316 10314 10312 10310 10308 10306 10303 10301 10299 10297 10295 10292 10289 10286 10284 10281 10278 10275 10273 10271 10268 10266 10263 10260 10257 10254 10252 10249 10247 10245 10243 10242 10240 10238 10237 10236 10234 10234 10233 10233 10233 10234 10234 10235 10236 10237
10381 10380 10381 10381 10380 10379 10378 10377 10376 10375 10374 10372 10371 10370 10368 10366 10364 10362 10359 10357 10355 10353 10351 10349 10347 10344 10340 10338 10336 10334 10332 10330 10328 10326 10324 10321 10319 10317 10315 10313 10311 10309 10307 10305 10302 10300 10298 10296 10294 10292 10290 10287 10284 10282 10279 10276 10274 10271 10269 10267 10264 10262 10259 10257 10254 10251 10249 10247 10245 10243 10241 10240 10238 10237 10235 10234 10233 10233 10232 10232 10232 10233 10233 10234 10235
10375 10374 10374 10374 10374 10373 10372 10371 10370 10369 10368 10366 10364 10363 10361 10359 10357 10355 10353 10351 10349 10347 10345 10343 10341 10339 10336 10334 10331 10330 10328 10326 10324 10322 10320 10318 10316 10314 10312 10309 10307 10305 10303 10301 10299 10297 10295 10294 10292 10289 10286 10284 10282 10280 10277 10275 10272 10270 10267 10265 10262 10260 10258 10256 10253 10251 10249 10247 10244 10242 10240 10239 10237 10236 10235 10234 10233 10232 10231 10231 10231 10231 10231 10232 10233
10369 10367 10367 10367 10367 10366 10365 10364 10363 10362 10360 10359 10357 10356 10354 10352 10350 10349 10347 10345 10343 10341 10339 10337 10335 10334 10331 10329 10327 10325 10323 10322 10320 10319 10317 10315 10313 10310 10308 10306 10303 10301 10299 10297 10296 10294 10293 10291 10290 10288 10285 10282 10280 10278 10276 10273 10270 10267 10265 10263 10261 10259 10256 10254 10252 10250 10248 10246 10244 10242 10240 10238 10237 10235 10234 10233 10232 10231 10230 10230 10229 10229 10229 10230 10231
10361 10360 10360 10360 10360 10359 10357 10356 10355 10354 10353 10351 10350 10349 10347 10346 10344 10342 10341 10339 10338 10336 10334 10332 10330 10328 10326 10324 10322 10319 10317 10316 10314 10313 10312 10310 10309 10307 10305 10303 10300 10298 10296 10294 10292 10290 10288 10287 10286 10285 10283 10281 10278 10275 10273 10270 10268 10265 10263 10261 10259 10257 10255 10253 10251 10249 10247 10245 10243 10241 10239 10237 10236 10234 10233 10232 10231 10230 10229 10229 10228 10228 10228 10228 10228
10354 10353 10352 10352 10352 10352 10350 10349 10348 10347 10346 10344 10343 10342 10341 10339 10338 10336 10335 10334 10332 10330 10329 10327 10325 10324 10322 10320 10319 10316 10314 10312 10310 10308 10306 10305 10304 10302 10301 10299 10297 10295 10293 10290 10288 10286 10284 10282 10280 10279 10278 10277 10275 10273 10270 10268 10266 10263 10261 10259 10257 10255 10253 10251 10249 10247 10245 10243 10241 10239 10238 10236 10234 10233 10232 10230 10229 10228 10227 10227 10226 10226 10226 10225 10225
10347 10347 10346 10345 10345 10345 10344 10343 10341 10340 10339 10338 10337 10336 10335 10333 10332 10331 10329 10328 10326 10325 10323 10322 10320 10319 10318 10316 10315 10314 10312 10310 10308 10306 10304 10302 10300 10299 10297 10295 10294 10292 10290 10287 10285 10282 10280 10278 10275 10273 10271 10270 10269 10268 10267 10265 10263 10261 10259 10257 10254 10252 10250 10248 10246 10244 10242 10241 10239 10237 10236 10234 10233 10231 10230 10229 10228 10226 10225 10224 10224 10223 10223 10223 10223
10341 10341 10340 10339 10338 10338 10337 10336 10335 10334 10333 10332 10331 10329 10328 10327 10326 10325 10324 10322 10321 10319 10318 10316 10314 10313 10312 10310 10309 10308 10306 10305 10304 10302 10300 10299 10297 10295 10293 10292 10290 10288 10286 10284 10282 10280 10277 10275 10272 10269 10267 10264 10263 10263 10263 10262 10261 10259 10257 10255 10252 10249 10247 10245 10243 10241 10240 10238 10237 10235 10234 10232 10230 10229 10228 10226 10225 10224 10223 10222 10221 10221 10220 10220 10220